Weather History for KCQX - May, 2013

Change the Weather History Date:

Sunday, May 19, 2013

  Actual Average (WUND) Record (WUND)
Temperature  
Mean Temperature 59 °F -  
Max Temperature 66 °F - - (-1)
Min Temperature 52 °F - - (-1)
Degree Days  
Heating Degree Days 6    
Growing Degree Days 9 (Base 50)    
Moisture  
Dew Point 51 °F    
Average Humidity 76    
Maximum Humidity 93    
Minimum Humidity 56    
Precipitation  
Precipitation 0.06 in - - ()
Sea Level Pressure  
Sea Level Pressure 30.34 in    
Wind  
Wind Speed 6 mph (SW)    
Max Wind Speed 12 mph    
Max Gust Speed 18 mph    
Visibility 10 miles    
Events Rain    
Averages and records for this station are not official NWS values.
T = Trace of Precipitation, MM = Missing Value Source: NWS Daily Summary

Daily Weather History Graph

Daily Weather History Graph

Search for Another Location

Airport or City:

Trip Planner

Search our weather history database for the weather conditions in past years. The results will help you decide how hot, cold, wet, or windy it might be!

Date:

Astronomy

May. 19, 2013 Rise Set
Actual Time 5:16 AM EDT 7:57 PM EDT
Civil Twilight 4:44 AM EDT 8:29 PM EDT
Nautical Twilight 4:04 AM EDT 9:09 PM EDT
Astronomical Twilight 3:18 AM EDT 9:55 PM EDT
Moon 1:53 PM EDT (5/19) 1:43 AM EDT (5/19)
Length of Visible Light 15h 44m
Length of Day
14h 40m
Waxing Gibbous, 65% of the Moon is Illuminated
May 19
Waxing Gibbous
May 25
Full
May 31
Last Quarter
Jun 8
New
Jun 16
First Quarter

Hourly Weather History & Observations

Time (EDT) Temp. Dew Point Humidity Pressure Visibility Wind Dir Wind Speed Gust Speed Precip Events Conditions
12:52 AM 55.9 °F 53.1 °F 90% 30.33 in 10.0 mi WSW 4.6 mph - N/A   Overcast
1:52 AM 55.0 °F 52.0 °F 89% 30.33 in 10.0 mi WSW 5.8 mph - N/A   Scattered Clouds
2:52 AM 54.0 °F 52.0 °F 93% 30.33 in 10.0 mi WSW 4.6 mph - N/A   Clear
3:52 AM 53.1 °F 50.0 °F 89% 30.33 in 10.0 mi SW 4.6 mph - N/A   Clear
4:52 AM 52.0 °F 48.9 °F 89% 30.34 in 10.0 mi SW 3.5 mph - 0.01 in   Clear
5:52 AM 55.0 °F 50.0 °F 83% 30.35 in 10.0 mi WSW 5.8 mph - N/A   Clear
6:52 AM 57.0 °F 51.1 °F 81% 30.36 in 10.0 mi SW 4.6 mph - N/A   Clear
7:52 AM 57.9 °F 52.0 °F 81% 30.37 in 10.0 mi SW 8.1 mph - N/A   Clear
8:52 AM 61.0 °F 51.1 °F 70% 30.38 in 10.0 mi Variable 5.8 mph - N/A   Clear
9:52 AM 63.0 °F 50.0 °F 63% 30.38 in 10.0 mi SW 6.9 mph - N/A   Clear
10:52 AM 63.0 °F 51.1 °F 65% 30.38 in 10.0 mi SSW 9.2 mph - N/A   Clear
11:52 AM 64.9 °F 50.0 °F 58% 30.38 in 10.0 mi SW 8.1 mph - N/A   Clear
12:52 PM 66.0 °F 50.0 °F 56% 30.37 in 10.0 mi SW 11.5 mph 18.4 mph N/A   Clear
1:52 PM 66.0 °F 52.0 °F 60% 30.35 in 10.0 mi SW 11.5 mph 18.4 mph N/A   Clear
2:52 PM 64.9 °F 52.0 °F 63% 30.33 in 10.0 mi SSW 9.2 mph - N/A   Clear
3:52 PM 64.9 °F 52.0 °F 63% 30.34 in 10.0 mi SSW 10.4 mph 16.1 mph N/A   Clear
4:52 PM 64.0 °F 48.9 °F 58% 30.32 in 10.0 mi SSW 11.5 mph 17.3 mph N/A   Clear
5:52 PM 61.0 °F 51.1 °F 70% 30.32 in 10.0 mi SSW 6.9 mph - N/A   Clear
6:52 PM 60.1 °F 51.1 °F 72% 30.32 in 10.0 mi Variable 5.8 mph - N/A   Clear
7:52 PM 57.9 °F 51.1 °F 78% 30.32 in 10.0 mi SSW 6.9 mph - N/A   Scattered Clouds
8:52 PM 57.9 °F 50.0 °F 75% 30.32 in 10.0 mi SSW 8.1 mph - N/A   Overcast
9:52 PM 57.0 °F 53.1 °F 87% 30.32 in 10.0 mi SW 6.9 mph - 0.00 in Rain Light Rain
10:52 PM 55.9 °F 54.0 °F 93% 30.30 in 10.0 mi SSW 5.8 mph - 0.02 in Rain Light Rain
11:52 PM 55.9 °F 54.0 °F 93% 30.29 in 8.0 mi South 6.9 mph - 0.03 in Rain Light Rain